Location: Miles
(41.4492°N, 81.6087°W)
Time: 00:36:21
(UTC+00:00)

Courier 1B Rocket - Pass Details

Date: 19 September 2024
Orbit: 920 x 1201 km, 28.3° (Epoch: 15 October)

Event Time Altitude Azimuth Distance (km) Brightness Sun altitude
Rises 22:56:55 0° 254° (WSW) 3,684 10.1 5.0°
Reaches altitude 10° 23:00:09 10° 240° (WSW) 2,780 8.7 4.4°
Maximum altitude 23:05:08 22° 192° (SSW) 2,109 7.0 3.4°
Drops below altitude 10° 23:10:22 10° 145° (SE) 2,934 7.2 2.4°
Sets 23:13:53 0° 131° (SE) 3,941 7.7 1.8°
